Location: Mannheim
(49.4880°N, 8.4650°E)
Time: 08:53:16
(UTC+01:00)

ISS - Pass Details

Date: 26 November 2022
Orbit: 411 x 420 km, 51.6° (Epoch: 30 November)

Event Time Altitude Azimuth Distance (km) Brightness Sun altitude
Rises 17:01:01 0° 246° (WSW) 2,344 3.0 -4.8°
Reaches altitude 10° 17:03:06 10° 245° (WSW) 1,482 1.0 -5.1°
Maximum altitude 17:06:25 79° 159° (SSE) 424 -3.7 -5.6°
Drops below altitude 10° 17:09:45 10° 73° (ENE) 1,484 -1.6 -6.1°
Enters shadow 17:10:09 - 72° (ENE) 1,648 -1.4 -6.2°
